STARLINK-5755, 55600

Orbit data source: Space-Track

STARLINK-5755, 55600 is a payload satellite owned by SpaceX/Seattle (US) in LEO that was launched on Sun, 12 Feb 2023 UTC via an FALCON 9 launch vehicle from the Air Force Eastern Test Range (AFETR). Payload-class satellites include a variety of spacecraft equipped with specific instruments for various scientific and technological missions. These include communications satellites like Starlink; space stations such as the ISS; scientific satellites like the Hubble; Earth observation satellites from companies like Planet Labs, Umbra, and HawkEye 360; GPS; miniature CubeSats for education and research; and military/defense satellites.

Loading next visibility...
Identifier
55600, 2023-020AH
Orbit
LEO
Country
Flag of USUS
Related business
Manufacturer
SpaceX/Seattle
Mission
Operational Commercial Communications
Bus & Motor
STARLINK, Unknown motor
Mass
305 kg wet, ~290 kg dry
Launch date (UTC)
2023-02-12 (3 years ago)
Launch vehicle
FALCON 9
Launch site
Air Force Eastern Test Range (AFETR)
Object type
Payload
Rocket body
Debris
Shape & HBR
Box + 1 Pan, 10.1 m
Radar Cross Section
13.562 m², Large (>1 m²)

Expand to show TLE details & history
Last TLE update: 11 hours ago

TLE from 11 hours ago
0 STARLINK-5755
1 55600U 23020AH  25340.87076298  .00000665  00000-0  64284-4 0  9999
2 55600  43.0024 136.2985 0000794 262.3714  97.7038 15.02527293155102
Epoch: 2025-12-06T20:53Z
TLE epoch observation values (Epoch: 2025-12-06T20:53:53.921Z)
Latitude
-0.00003°
Longitude
106.93151°
Altitude
558.958 km
Speed
7.584 km/s
True Right ascension
09h 05m 11s
True Declination
0° 00' 00"
Sunlit
Object was in full shadow at epoch
Visualization orbit readout
Latitude
Unknown
Longitude
Unknown
Altitude
Unknown
Speed
Unknown
Apparent Right ascension
Unknown
Apparent Declination
Unknown
Sunlit
N/A
Visualization observer readout
Local Sidereal Time
05:40:49
Azimuth
Unknown
Elevation
Unknown
Doppler factor
Unknown
Orbital elements
Apogee altitude
561.581 km
Perigee altitude
560.479 km
Semi-major axis
6,939.167 km
Eccentricity
0.00008
Inclination
43.0024°
RAAN
136.2985°
Arg. of periapsis
262.3714°
True anomaly
97.71282°
Mean anomaly
97.7038°
Eccentric anomaly
97.70831°
Mean motion
3.75476 °/min
Orbital period
95.88 mins
BSTAR
0.000064284
Loading maneuver chart data...
Computing Atmospheric mass density...
Loading historical data...
Loading historical data...
Loading historical data...
Loading historical data...
Loading historical data...
Loading historical data...
Loading historical data...

Documentation

Showing up to 5 results
|